Regional Weather Roundup
Issued by NWS Jackson, KY

Home | Current Version | Previous Version | Graphics & Text | Print | Product List | Glossary On
Versions: 1 2 3 4 5 6 7 8 9 10 11 12 13 14 15 16 17 18 19 20 21 22 23 24 25 26 27
000
ASUS43 KJKL 280010
RWRJKL

EAST KENTUCKY HOURLY WEATHER ROUNDUP
NATIONAL WEATHER SERVICE JACKSON KY
800 PM EDT FRI MAY 27 2016

NOTE: "FAIR" INDICATES FEW OR NO CLOUDS BELOW 12,000 FEET WITH
NO SIGNIFICANT WEATHER AND/OR OBSTRUCTIONS TO VISIBILITY.

* THESE REPORTS ARE NOT UNDER NWS QUALITY CONTROL AND MAY NOT
  REPORT WEATHER SUCH AS PRECIPITATION AND FOG.

KYZ079-080-083-085-087-088-110-112-115-119-120-280100
...EASTERN KENTUCKY...

CITY           SKY/WX    TMP DP  RH WIND       PRES   REMARKS
JACKSON        CLOUDY    69  65  86 CALM      30.04R
6HR MIN TEMP:  68; 6HR MAX TEMP:  87; 6HR PCP:  0.05;

LONDON         MOCLDY    75  64  68 SE6       30.04R
6HR MIN TEMP:  75; 6HR MAX TEMP:  84; 6HR PCP: TRACE;

SOMERSET*      CLEAR     77  64  65 CALM      30.02R
MONTICELLO*    CLOUDY    75  69  81 N8        30.02R
6HR MIN TEMP:  71; 6HR MAX TEMP:  86; 6HR PCP:  0.45;

WILLIAMSBURG*  MOCLDY    68  66  94 SE5       30.04R
MIDDLESBORO*   CLOUDY    69  67  94 CALM      30.06R
6HR MIN TEMP:  69; 6HR MAX TEMP:  87; 6HR PCP:  0.30;

HARLAN APT*      N/A     68  63  83 CALM      30.07S
HAZARD APT*    PTCLDY    72  72 100 CALM      30.06R
BLACK MTN*       N/A     64  61  88 S1          N/A
PIKE CO APT*     N/A     73  67  80 SW5       30.07R
BIG SANDY APT* CLOUDY    77  68  74 CALM      30.04R
6HR MIN TEMP:  76; 6HR MAX TEMP:  87;

MOREHEAD APT*  CLOUDY    82  66  57 CALM      30.03R
ASHLAND*       CLOUDY    79  70  73 CALM      29.98R
$$

KYZ035-036-041-042-044-050-067-078-099-280100
...CENTRAL KENTUCKY...

CITY           SKY/WX    TMP DP  RH WIND       PRES   REMARKS
MT STERLING*   CLOUDY    82  66  57 SW3       30.02S
FLEMING/MASON* CLOUDY   N/A N/A N/A S3        30.01F
RICHMOND*      MOSUNNY   81  64  57 SE5       30.00R
LEXINGTON      CLEAR     81  65  58 SE7       30.00R
6HR MIN TEMP:  81; 6HR MAX TEMP:  85;

FRANKFORT      CLEAR     82  65  56 S5        29.97R
6HR MIN TEMP:  82; 6HR MAX TEMP:  86;

LOUISVILLE     MOCLDY    84  64  50 SE8       29.94R
6HR MIN TEMP:  84; 6HR MAX TEMP:  87;

LEBANON*         N/A     82  68  61 SE3       29.98R
GLASGOW*       CLOUDY    81  66  59 CALM      29.96R
BOWLING GREEN  CLOUDY    83  67  58 VRB6      29.94R
6HR MIN TEMP:  82; 6HR MAX TEMP:  88; 6HR PCP:  0.01;

$$

KYZ091>093-OHZ055-061-077-WVZ005-015-034-035-042-280100
...SOUTHERN OHIO/WEST VIRGINIA...

CITY           SKY/WX    TMP DP  RH WIND       PRES   REMARKS
COVINGTON      MOCLDY    81  67  62 S7        29.98R
COLUMBUS       MOCLDY    84  61  45 S6        29.98R
DAYTON         MOCLDY    82  60  47 S12       29.98S
WILMINGTON     CLEAR     80  64  58 S7        29.99R
HUNTINGTON       N/A     83  65  54 SE5       30.00R
CHARLESTON       N/A     77  59  53 SE13      30.03R
PINEVILLE*       N/A     70  66  88 MISG      30.14R
BECKLEY          N/A     71  62  73 CALM      30.13R
BLUEFIELD        N/A     72  58  61 CALM      30.16R
LOGAN CO APT*    N/A     79  63  57 CALM      30.07R
$$

VAZ002-007-008-TNZ017-027-036-066-071-280100
...SOUTHWEST VIRGINIA/EAST TENNESSEE...

CITY           SKY/WX    TMP DP  RH WIND       PRES   REMARKS
WISE*          CLOUDY    68  64  88 S5        30.14S
JONESVILLE*      N/A     73  66  78 CALM      30.09R
ABINGDON*      LGT RAIN  69  66  90 CALM      30.11S
BRISTOL        CLOUDY    69  68  96 CALM      30.08R
SEVIERVILLE*   PTCLDY    75  64  69 CALM      30.03S
KNOXVILLE      CLOUDY    74  69  85 E6        30.02S
OAK RIDGE      CLOUDY    76  68  76 CALM      30.04R
CROSSVILLE     CLOUDY    74  66  76 VRB5      30.05R
NASHVILLE      CLOUDY    82  63  52 SW3       29.95R
$$

...KEY TO REMARKS...
VSB - VISIBILITY IN MILES
WCI - WIND CHILL INDEX
HX  - HEAT INDEX

$$




USA.gov is the U.S. government's official web portal to all federal, state and local government web resources and services.